This is the latest recevied weather packets stored in our database for station/object PU5FJO-13. If no packets are shown the sender has not sent any weather packets the latest 10 day(s).
| Time | Temp. | Humidity | Pressure | Rain* | Wind** | Luminosity | Snow |
|---|---|---|---|---|---|---|---|
| 1777222564 | 23.33° C | 75% | 1008.6 hPa | - | - | - | - |
| 1777221965 | 23.33° C | 75% | 1008.9 hPa | - | - | - | - |
| 1777221364 | 23.33° C | 75% | 1008.7 hPa | - | - | - | - |
| 1777220764 | 22.78° C | 74% | 1008.9 hPa | - | - | - | - |
| 1777220164 | 23.33° C | 74% | 1009 hPa | - | - | - | - |
| 1777219564 | 23.33° C | 73% | 1009.1 hPa | - | - | - | - |
| 1777218964 | 23.33° C | 74% | 1009.1 hPa | - | - | - | - |
| 1777218364 | 22.78° C | 77% | 1009.4 hPa | - | - | - | - |
| 1777217764 | 22.22° C | 78% | 1009.4 hPa | - | - | - | - |
| 1777217164 | 22.22° C | 79% | 1009.7 hPa | - | - | - | - |
| 1777216564 | 21.67° C | 79% | 1009.8 hPa | - | - | - | - |
| 1777215964 | 21.11° C | 80% | 1009.5 hPa | - | - | - | - |
| 1777215364 | 21.11° C | 79% | 1009.7 hPa | - | - | - | - |
| 1777214764 | 20.56° C | 82% | 1010.1 hPa | - | - | - | - |
| 1777214164 | 20° C | 82% | 1010.1 hPa | - | - | - | - |
| 1777213564 | 20° C | 83% | 1010.3 hPa | - | - | - | - |
| 1777212964 | 20° C | 84% | 1010.7 hPa | - | - | - | - |
| 1777212364 | 20° C | 85% | 1010.5 hPa | - | - | - | - |
| 1777211765 | 19.44° C | 86% | 1010.7 hPa | - | - | - | - |
| 1777211164 | 19.44° C | 86% | 1010.9 hPa | - | - | - | - |
| 1777210564 | 19.44° C | 86% | 1011.2 hPa | - | - | - | - |
| 1777209964 | 20° C | 87% | 1011.4 hPa | - | - | - | - |
| 1777209364 | 20° C | 87% | 1011.9 hPa | - | - | - | - |
| 1777208764 | 19.44° C | 87% | 1011.6 hPa | - | - | - | - |
| 1777208164 | 20° C | 87% | 1012 hPa | - | - | - | - |
* Rain since midnight (hover to see other rain measurements)
** Current wind speed in m/s (hover to see current wind gust speed)